• In Belarus
  • List of Countries
  • For 7 days
  • Water Temperature
  • Satellite Maps
  • Weather Map
  • Weather Widgets
  • user-avatar
    Login

    Hourly Weather Juticalpa

    Today, 24 February, Saturday

    Time Temperature Precipitation Wind Pressure Humidity
    00:00 +18°C° 0 mm 0 mps 730 mmHg 98%
    01:00 +18°C° 0 mm 0 mps 730 mmHg 98%
    02:00 +18°C° 0 mm 0 mps 729 mmHg 98%
    03:00 +18°C° 0 mm 0 mps 729 mmHg 98%
    04:00 +17°C° 0 mm 0 mps 729 mmHg 99%
    05:00 +17°C° 0 mm 0 mps 729 mmHg 99%
    06:00 +17°C° 0 mm 0 mps 729 mmHg 99%
    07:00 +19°C° 0 mm 0 mps 730 mmHg 90%
    08:00 +21°C° 0 mm 0 mps 730 mmHg 82%
    09:00 +23°C° 0 mm 0 mps 731 mmHg 74%
    10:00 +27°C° 0 mm 1 mps 730 mmHg 65%
    11:00 +29°C° 0 mm 1 mps 730 mmHg 56%
    12:00 +31°C° 0 mm 2 mps 729 mmHg 47%
    13:00 +31°C° 0.1 mm 2 mps 729 mmHg 48%
    14:00 +30°C° 0.1 mm 2 mps 728 mmHg 48%
    15:00 +30°C° 0.1 mm 2 mps 728 mmHg 49%
    16:00 +28°C° 0.2 mm 2 mps 728 mmHg 58%
    17:00 +26°C° 0.2 mm 1 mps 728 mmHg 67%
    18:00 +24°C° 0.2 mm 1 mps 728 mmHg 76%
    19:00 +23°C° 0.1 mm 1 mps 728 mmHg 82%
    20:00 +22°C° 0.1 mm 1 mps 729 mmHg 88%
    21:00 +21°C° 0.1 mm 1 mps 729 mmHg 94%
    22:00 +18°C° 0 mm 0 mps 729 mmHg 96%
    23:00 +18°C° 0 mm 0 mps 729 mmHg 97%

    Tomorrow, 25 February, Sunday

    Time Temperature Precipitation Wind Pressure Humidity
    00:00 +18°C° 0 mm 0 mps 729 mmHg 98%
    01:00 +18°C° 0 mm 0 mps 729 mmHg 98%
    02:00 +18°C° 0 mm 0 mps 729 mmHg 98%
    03:00 +18°C° 0 mm 0 mps 729 mmHg 98%
    04:00 +18°C° 0 mm 0 mps 729 mmHg 98%
    05:00 +18°C° 0 mm 0 mps 729 mmHg 98%
    06:00 +18°C° 0 mm 0 mps 729 mmHg 98%
    07:00 +20°C° 0 mm 0 mps 730 mmHg 88%
    08:00 +24°C° 0 mm 1 mps 730 mmHg 78%
    09:00 +25°C° 0 mm 1 mps 730 mmHg 68%
    10:00 +27°C° 0 mm 1 mps 730 mmHg 57%
    11:00 +29°C° 0 mm 2 mps 730 mmHg 47%
    12:00 +31°C° 0 mm 2 mps 729 mmHg 36%
    13:00 +32°C° 0 mm 2 mps 728 mmHg 35%
    14:00 +32°C° 0 mm 2 mps 728 mmHg 33%
    15:00 +32°C° 0 mm 2 mps 727 mmHg 32%
    16:00 +30°C° 0 mm 2 mps 727 mmHg 40%
    17:00 +27°C° 0 mm 1 mps 728 mmHg 48%
    18:00 +25°C° 0 mm 1 mps 728 mmHg 56%
    19:00 +24°C° 0 mm 1 mps 729 mmHg 65%
    20:00 +22°C° 0 mm 1 mps 729 mmHg 73%
    21:00 +21°C° 0 mm 1 mps 730 mmHg 81%
    22:00 +21°C° 0 mm 1 mps 730 mmHg 86%
    23:00 +19°C° 0 mm 0 mps 730 mmHg 91%

    Day after tomorrow, 26 February, Monday

    Time Temperature Precipitation Wind Pressure Humidity
    00:00 +18°C° 0 mm 0 mps 730 mmHg 95%
    01:00 +18°C° 0 mm 0 mps 729 mmHg 95%
    02:00 +19°C° 0 mm 0 mps 729 mmHg 95%
    03:00 +19°C° 0 mm 0 mps 729 mmHg 95%
    04:00 +18°C° 0 mm 0 mps 729 mmHg 96%
    05:00 +18°C° 0 mm 0 mps 729 mmHg 97%
    06:00 +18°C° 0 mm 0 mps 730 mmHg 98%
    07:00 +20°C° 0 mm 0 mps 730 mmHg 89%
    08:00 +23°C° 0 mm 1 mps 731 mmHg 80%
    09:00 +25°C° 0 mm 1 mps 731 mmHg 72%
    10:00 +27°C° 0 mm 1 mps 731 mmHg 63%
    11:00 +29°C° 0 mm 1 mps 730 mmHg 54%
    12:00 +30°C° 0 mm 2 mps 730 mmHg 45%
    13:00 +31°C° 0 mm 2 mps 729 mmHg 42%
    14:00 +31°C° 0 mm 2 mps 728 mmHg 39%
    15:00 +32°C° 0 mm 2 mps 728 mmHg 35%
    16:00 +30°C° 0 mm 2 mps 728 mmHg 43%
    17:00 +27°C° 0 mm 1 mps 728 mmHg 51%
    18:00 +25°C° 0 mm 1 mps 729 mmHg 59%
    19:00 +24°C° 0.1 mm 1 mps 729 mmHg 68%
    20:00 +22°C° 0.1 mm 1 mps 730 mmHg 78%
    21:00 +21°C° 0.1 mm 1 mps 731 mmHg 87%
    22:00 +19°C° 0 mm 0 mps 730 mmHg 90%
    23:00 +19°C° 0 mm 0 mps 730 mmHg 94%

    27 February, Tuesday

    Time Temperature Precipitation Wind Pressure Humidity
    00:00 +18°C° 0 mm 0 mps 730 mmHg 97%
    01:00 +18°C° 0 mm 0 mps 730 mmHg 97%
    02:00 +18°C° 0 mm 0 mps 729 mmHg 98%
    03:00 +18°C° 0 mm 0 mps 729 mmHg 98%
    04:00 +18°C° 0 mm 0 mps 729 mmHg 98%
    05:00 +18°C° 0 mm 0 mps 730 mmHg 98%
    06:00 +18°C° 0 mm 0 mps 730 mmHg 98%
    07:00 +20°C° 0 mm 0 mps 730 mmHg 88%
    08:00 +22°C° 0 mm 0 mps 731 mmHg 78%
    09:00 +26°C° 0 mm 1 mps 731 mmHg 68%
    10:00 +28°C° 0 mm 1 mps 731 mmHg 62%
    11:00 +29°C° 0 mm 1 mps 730 mmHg 56%
    12:00 +30°C° 0 mm 2 mps 730 mmHg 51%
    13:00 +30°C° 0.1 mm 2 mps 729 mmHg 51%
    14:00 +30°C° 0.1 mm 2 mps 728 mmHg 51%
    15:00 +30°C° 0.1 mm 2 mps 727 mmHg 51%
    16:00 +28°C° 0.4 mm 2 mps 728 mmHg 58%
    17:00 +27°C° 0.4 mm 1 mps 728 mmHg 65%
    18:00 +25°C° 0.4 mm 1 mps 728 mmHg 72%
    19:00 +24°C° 0.1 mm 1 mps 729 mmHg 78%
    20:00 +23°C° 0.1 mm 1 mps 729 mmHg 84%
    21:00 +22°C° 0.1 mm 1 mps 730 mmHg 89%
    22:00 +21°C° 0 mm 1 mps 730 mmHg 92%
    23:00 +19°C° 0 mm 0 mps 730 mmHg 95%

    28 February, Wednesday

    Time Temperature Precipitation Wind Pressure Humidity
    00:00 +18°C° 0 mm 0 mps 729 mmHg 97%
    01:00 +18°C° 0 mm 0 mps 729 mmHg 98%
    02:00 +18°C° 0 mm 0 mps 728 mmHg 98%
    03:00 +17°C° 0 mm 0 mps 728 mmHg 98%
    04:00 +17°C° 0 mm 0 mps 728 mmHg 98%
    05:00 +17°C° 0 mm 0 mps 728 mmHg 98%
    06:00 +17°C° 0 mm 0 mps 729 mmHg 98%
    07:00 +19°C° 0 mm 0 mps 729 mmHg 88%
    08:00 +24°C° 0 mm 1 mps 730 mmHg 77%
    09:00 +26°C° 0 mm 1 mps 730 mmHg 67%
    10:00 +28°C° 0 mm 1 mps 730 mmHg 57%
    11:00 +30°C° 0 mm 2 mps 729 mmHg 48%
    12:00 +31°C° 0 mm 2 mps 728 mmHg 39%
    13:00 +32°C° 0 mm 2 mps 728 mmHg 40%
    14:00 +32°C° 0 mm 2 mps 727 mmHg 41%
    15:00 +32°C° 0 mm 2 mps 726 mmHg 42%
    16:00 +30°C° 0 mm 2 mps 726 mmHg 51%
    17:00 +28°C° 0 mm 1 mps 727 mmHg 60%
    18:00 +26°C° 0 mm 1 mps 727 mmHg 69%
    19:00 +24°C° 0 mm 1 mps 727 mmHg 75%
    20:00 +23°C° 0 mm 1 mps 728 mmHg 81%
    21:00 +20°C° 0 mm 0 mps 728 mmHg 86%
    22:00 +19°C° 0 mm 0 mps 728 mmHg 90%
    23:00 +19°C° 0 mm 0 mps 728 mmHg 93%

    1 March, Thursday

    Time Temperature Precipitation Wind Pressure Humidity
    00:00 +18°C° 0 mm 0 mps 728 mmHg 97%
    01:00 +18°C° 0 mm 0 mps 728 mmHg 97%
    02:00 +19°C° 0 mm 0 mps 728 mmHg 96%
    03:00 +19°C° 0 mm 0 mps 727 mmHg 96%
    04:00 +19°C° 0 mm 0 mps 728 mmHg 96%
    05:00 +18°C° 0 mm 0 mps 728 mmHg 96%
    06:00 +18°C° 0 mm 0 mps 728 mmHg 96%
    07:00 +20°C° 0 mm 0 mps 729 mmHg 86%
    08:00 +22°C° 0 mm 0 mps 729 mmHg 76%
    09:00 +26°C° 0 mm 1 mps 729 mmHg 66%
    10:00 +28°C° 0 mm 1 mps 729 mmHg 56%
    11:00 +30°C° 0 mm 1 mps 728 mmHg 46%
    12:00 +32°C° 0 mm 2 mps 728 mmHg 36%
    13:00 +32°C° 0 mm 2 mps 727 mmHg 34%
    14:00 +34°C° 0 mm 2 mps 727 mmHg 31%
    15:00 +34°C° 0 mm 2 mps 726 mmHg 29%
    16:00 +31°C° 0 mm 2 mps 726 mmHg 36%
    17:00 +28°C° 0 mm 1 mps 726 mmHg 43%
    18:00 +26°C° 0 mm 1 mps 727 mmHg 50%
    19:00 +24°C° 0 mm 1 mps 727 mmHg 58%
    20:00 +23°C° 0 mm 1 mps 728 mmHg 65%
    21:00 +22°C° 0 mm 1 mps 728 mmHg 73%
    22:00 +21°C° 0 mm 1 mps 728 mmHg 79%
    23:00 +19°C° 0 mm 0 mps 728 mmHg 85%
    Show more